Denver, CO

3:19 AM MST on December 17, 2017 (GMT -0700)
Denver International

Weather History for KDEN - September, 2013

Change the Weather History Date:

Friday, September 27, 2013

  Actual Average Record
Temperature  
Mean Temperature 46 °F 59 °F  
Max Temperature 53 °F 74 °F 92 °F (1953)
Min Temperature 39 °F 44 °F 21 °F (1908)
Degree Days  
Heating Degree Days 19 7  
Month to date heating degree days 65 99  
Since 1 July heating degree days 65 115  
Cooling Degree Days 0 1  
Month to date cooling degree days 131 74  
Year to date cooling degree days 997 762  
Moisture  
Dew Point 45 °F    
Average Humidity 89    
Maximum Humidity 100    
Minimum Humidity 77    
Precipitation  
Precipitation 0.14 in 0.03 in 0.81 in (1936)
Month to date precipitation 5.61 0.86  
Year to date precipitation 16.36 12.22  
Snow  
Snow 0.00 in - - ()
Month to date snowfall 0  
Since 1 July snowfall 0  
Since 1 September snowfall 0  
Snow Depth 0.00 in    
Sea Level Pressure  
Sea Level Pressure 29.78 in    
Wind  
Wind Speed 11 mph (NNE)    
Max Wind Speed 20 mph    
Max Gust Speed 24 mph    
Visibility 5 miles    
Events Fog , Rain    
T = Trace of Precipitation, MM = Missing Value Source: NWS Daily Summary

Daily Weather History Graph

Daily Weather History Graph

Search for Another Location

Airport or City:

Trip Planner

Search our weather history database for the weather conditions in past years. The results will help you decide how hot, cold, wet, or windy it might be!

Date:

Astronomy

Sep. 27, 2013 Rise Set
Actual Time 6:51 AM MDT 6:47 PM MDT
Civil Twilight 6:24 AM MDT 7:13 PM MDT
Nautical Twilight 5:52 AM MDT 7:45 PM MDT
Astronomical Twilight 5:21 AM MDT 8:17 PM MDT
Moon No Moon Rise 2:26 PM MDT (9/27)
Length of Visible Light 12h 49m
Length of Day
11h 55m
Last Quarter, 44% of the Moon is Illuminated
Sep 27
Last Quarter
Oct 4
New
Oct 11
First Quarter
Oct 18
Full
Oct 26
Last Quarter

Hourly Weather History & Observations

Time (MDT) Temp. Windchill Dew Point Humidity Pressure Visibility Wind Dir Wind Speed Gust Speed Precip Events Conditions
12:53 AM 52.0 °F - 45.0 °F 77% 29.62 in 10.0 mi WSW 6.9 mph - N/A   Clear
1:53 AM 52.0 °F - 46.0 °F 80% 29.61 in 10.0 mi WSW 5.8 mph - N/A   Clear
2:53 AM 50.0 °F - 46.0 °F 86% 29.61 in 10.0 mi West 6.9 mph - N/A   Partly Cloudy
3:37 AM 50.0 °F - 44.6 °F 82% 29.77 in 10.0 mi NNW 5.8 mph - N/A   Mostly Cloudy
3:53 AM 51.1 °F - 48.0 °F 89% 29.60 in 10.0 mi NNW 5.8 mph - N/A   Mostly Cloudy
4:31 AM 51.8 °F - 48.2 °F 88% 29.79 in 6.0 mi North 5.8 mph - N/A   Overcast
4:34 AM 51.8 °F - 48.2 °F 88% 29.79 in 2.0 mi NNW 6.9 mph - N/A   Overcast
4:53 AM 51.1 °F - 48.9 °F 92% 29.61 in 1.0 mi NNE 6.9 mph - N/A Fog Overcast
5:20 AM 51.8 °F - 48.2 °F 88% 29.79 in 0.8 mi North 6.9 mph - N/A Fog Overcast
5:23 AM 51.8 °F - 48.2 °F 88% 29.79 in 0.2 mi NNE 8.1 mph - N/A Fog Overcast
5:38 AM 51.8 °F - 48.2 °F 88% 29.78 in 0.2 mi NE 9.2 mph - N/A Fog Fog
5:53 AM 51.1 °F - 50.0 °F 96% 29.62 in 0.2 mi NE 8.1 mph - N/A Fog Fog
5:56 AM 51.8 °F - 50.0 °F 94% 29.79 in 0.2 mi NE 10.4 mph - N/A   Overcast
6:53 AM 48.9 °F - 48.0 °F 97% 29.67 in 0.2 mi NE 13.8 mph - 0.00 in   Light Drizzle
7:53 AM 46.9 °F - 45.0 °F 93% 29.69 in 0.2 mi NE 17.3 mph - 0.00 in   Overcast
8:53 AM 46.9 °F - 45.0 °F 93% 29.72 in 0.2 mi ENE 9.2 mph - N/A   Overcast
9:53 AM 46.9 °F - 46.0 °F 97% 29.73 in 0.2 mi NNE 9.2 mph - N/A   Overcast
10:53 AM 46.9 °F - 45.0 °F 93% 29.72 in 0.2 mi NE 11.5 mph - N/A   Overcast
11:53 AM 46.9 °F - 45.0 °F 93% 29.73 in 0.2 mi NNE 10.4 mph - N/A Fog Fog
12:26 PM 46.4 °F 41.1 °F 44.6 °F 93% 29.85 in 0.2 mi North 11.5 mph - N/A Fog Fog
12:37 PM 46.4 °F 41.1 °F 44.6 °F 93% 29.86 in 0.2 mi North 11.5 mph - N/A   Mist
12:53 PM 46.0 °F 40.6 °F 45.0 °F 96% 29.75 in 0.2 mi North 11.5 mph - 0.00 in Rain Light Rain
1:53 PM 46.0 °F 39.6 °F 44.1 °F 93% 29.74 in 0.2 mi NNE 15.0 mph 21.9 mph 0.02 in Rain Light Rain
2:29 PM 46.4 °F 39.5 °F 44.6 °F 93% 29.83 in 3.0 mi NE 17.3 mph - 0.00 in Rain Light Rain
2:53 PM 46.0 °F 38.8 °F 44.1 °F 93% 29.74 in 3.0 mi NE 18.4 mph - 0.00 in   Overcast
3:45 PM 46.4 °F 40.7 °F 44.6 °F 93% 29.86 in 3.0 mi NNE 12.7 mph - 0.00 in Rain Light Rain
3:53 PM 46.0 °F 40.2 °F 44.1 °F 93% 29.76 in 3.0 mi NNE 12.7 mph - 0.00 in   Overcast
4:21 PM 46.4 °F 39.2 °F 44.6 °F 93% 29.86 in 10.0 mi NE 18.4 mph - N/A   Overcast
4:53 PM 46.9 °F - 44.1 °F 90% 29.78 in 10.0 mi NE 13.8 mph - N/A   Overcast
5:53 PM 46.0 °F 41.0 °F 43.0 °F 89% 29.81 in 10.0 mi North 10.4 mph - N/A   Overcast
6:17 PM 44.6 °F 39.7 °F 42.8 °F 93% 29.92 in 10.0 mi North 9.2 mph - N/A   Overcast
6:53 PM 45.0 °F 38.5 °F 43.0 °F 93% 29.86 in 6.0 mi North 13.8 mph 21.9 mph 0.01 in Rain Rain
7:51 PM 42.8 °F 35.4 °F 41.0 °F 93% 29.95 in 5.0 mi NE 15.0 mph - 0.07 in Rain Rain
7:53 PM 42.1 °F 33.9 °F 41.0 °F 96% 29.88 in 5.0 mi NE 17.3 mph - 0.08 in Rain Rain
8:00 PM 42.8 °F 35.1 °F 39.2 °F 87% 29.96 in 6.0 mi NE 16.1 mph - 0.00 in Rain Light Rain
8:53 PM 42.1 °F 37.1 °F 41.0 °F 96% 29.92 in 10.0 mi NE 8.1 mph - 0.03 in Rain Light Rain
9:53 PM 42.1 °F 38.4 °F 41.0 °F 96% 29.95 in 10.0 mi ESE 5.8 mph - 0.00 in   Overcast
10:53 PM 41.0 °F 34.3 °F 39.0 °F 93% 29.97 in 10.0 mi South 11.5 mph 16.1 mph N/A   Mostly Cloudy
11:53 PM 39.0 °F 33.4 °F 37.0 °F 93% 29.98 in 10.0 mi South 8.1 mph - N/A   Partly Cloudy